Curacao, Curacao

2:10 AM AST on April 30, 2017 (GMT -0400)
Willemstad-Hato International

Weather History for TNCC - November, 2013

Change the Weather History Date:

Saturday, November 23, 2013

  Actual Average Record
Temperature  
Mean Temperature 82 °F -  
Max Temperature 87 °F 84 °F 91 °F (2006)
Min Temperature 77 °F 75 °F 75 °F (1999)
Cooling Degree Days 17    
Growing Degree Days 32 (Base 50)    
Moisture  
Dew Point 74 °F    
Average Humidity 79    
Maximum Humidity 89    
Minimum Humidity 61    
Precipitation  
Precipitation 0.12 in 0.13 in - ()
Sea Level Pressure  
Sea Level Pressure 29.84 in    
Wind  
Wind Speed 8 mph ()    
Max Wind Speed 15 mph    
Max Gust Speed -    
Visibility 6.7 miles    
Events Rain    
Averages and records for this station are not official NWS values.
T = Trace of Precipitation, MM = Missing Value Source: Averaged Metar Reports

Daily Weather History Graph

Daily Weather History Graph

Search for Another Location

Airport or City:

Trip Planner

Search our weather history database for the weather conditions in past years. The results will help you decide how hot, cold, wet, or windy it might be!

Date:

Astronomy

Nov. 23, 2013 Rise Set
Actual Time 6:37 AM AST 6:07 PM AST
Civil Twilight 6:14 AM AST 6:30 PM AST
Nautical Twilight 5:48 AM AST 6:56 PM AST
Astronomical Twilight 5:22 AM AST 7:21 PM AST
Moon 11:10 PM AST (11/23) 11:10 AM AST (11/23)
Length of Visible Light 12h 15m
Length of Day
11h 30m
Waning Gibbous, 70% of the Moon is Illuminated
Nov 23
Waning Gibbous
Nov 25
Last Quarter
Dec 2
New
Dec 9
First Quarter
Dec 17
Full

Hourly Weather History & Observations

Time (AST) Temp. Heat Index Dew Point Humidity Pressure Visibility Wind Dir Wind Speed Gust Speed Precip Events Conditions
12:00 AM 80.6 °F 85.4 °F 73.4 °F 79% 29.89 in 6.2 mi ESE 9.2 mph - N/A   Partly Cloudy
1:00 AM 78.8 °F - 73.4 °F 83% 29.86 in 6.2 mi SE 6.9 mph - N/A   Partly Cloudy
2:00 AM 78 °F - 73 °F 80% 29.85 in 37 mi SE 4.6 mph - -   Scattered Clouds
2:00 AM 77.0 °F - 73.4 °F 89% 29.83 in 6.2 mi SE 5.8 mph - N/A   Partly Cloudy
3:00 AM 77.0 °F - 71.6 °F 83% 29.83 in 6.2 mi SE 5.8 mph - N/A   Partly Cloudy
4:00 AM 77.0 °F - 73.4 °F 89% 29.80 in 6.2 mi ESE 4.6 mph - N/A   Partly Cloudy
5:00 AM 77.0 °F - 73.4 °F 89% 29.80 in 6.2 mi SSE 4.6 mph - N/A   Partly Cloudy
6:00 AM 77.0 °F - 73.4 °F 89% 29.83 in 6.2 mi SE 5.8 mph - N/A   Partly Cloudy
7:00 AM 78.8 °F - 73.4 °F 83% 29.83 in 6.2 mi ESE 5.8 mph - N/A   Partly Cloudy
8:00 AM 82 °F - 74 °F 72% 29.86 in 31 mi ESE 9.2 mph - -   Scattered Clouds
8:00 AM 82.4 °F 89.5 °F 75.2 °F 79% 29.86 in 6.2 mi ESE 9.2 mph - N/A   Partly Cloudy
9:00 AM 84.2 °F 90.9 °F 73.4 °F 70% 29.89 in 6.2 mi ESE 11.5 mph - N/A   Scattered Clouds
10:00 AM 86.0 °F 95.1 °F 75.2 °F 70% 29.89 in 6.2 mi East 12.7 mph - N/A   Scattered Clouds
11:00 AM 86 °F - 74 °F 61% 29.89 in 19 mi East 15.0 mph - -   Partly Cloudy
11:00 AM 86.0 °F 95.1 °F 75.2 °F 70% 29.89 in 6.2 mi East 11.5 mph - N/A   Scattered Clouds
12:00 PM 86.0 °F 95.1 °F 75.2 °F 70% 29.86 in 6.2 mi East 10.4 mph - N/A   Mostly Cloudy
1:00 PM 80.6 °F 86.2 °F 75.2 °F 84% 29.86 in 6.2 mi ESE 5.8 mph - N/A Rain Light Rain Showers
2:00 PM 81 °F - 76 °F 79% 29.82 in 25 mi East 10.4 mph - - Rain Light Rain Showers
2:00 PM 82.4 °F 90.9 °F 77.0 °F 84% - 6.2 mi East 9.2 mph - N/A   Scattered Clouds
3:00 PM 80.6 °F 85.4 °F 73.4 °F 79% 29.80 in 6.2 mi East 12.7 mph - N/A   Mostly Cloudy
4:00 PM 80.6 °F 86.2 °F 75.2 °F 84% 29.80 in 6.2 mi East 8.1 mph - N/A Rain Light Rain Showers
5:00 PM 79 °F - 75 °F 83% 29.79 in 22 mi ESE 6.9 mph - - Rain Light Rain Showers
5:00 PM 78.8 °F - 75.2 °F 89% 29.77 in 6.2 mi ESE 11.5 mph - N/A   Scattered Clouds
6:00 PM 80.6 °F 85.4 °F 73.4 °F 79% 29.77 in 6.2 mi East 12.7 mph - N/A   Scattered Clouds
7:00 PM 80.6 °F 85.4 °F 73.4 °F 79% 29.80 in 6.2 mi East 11.5 mph - N/A   Partly Cloudy
8:00 PM 81 °F - 73 °F 72% 29.83 in 31 mi East 9.2 mph - -   Partly Cloudy
8:00 PM 80.6 °F 85.4 °F 73.4 °F 79% 29.80 in 6.2 mi East 11.5 mph - N/A   Scattered Clouds
9:00 PM 80.6 °F 85.4 °F 73.4 °F 79% 29.83 in 6.2 mi East 11.5 mph - N/A   Partly Cloudy
10:00 PM 80.6 °F 85.4 °F 73.4 °F 79% 29.83 in 6.2 mi East 12.7 mph - N/A   Scattered Clouds
11:00 PM 80 °F - 73 °F 73% 29.86 in 31 mi East 10.4 mph - -   Partly Cloudy
11:00 PM 80.6 °F 85.4 °F 73.4 °F 79% 29.86 in 6.2 mi East 10.4 mph - N/A   Scattered Clouds